Powrót do katalogu

STARLINK-30921

AktywnyŁącznośćVLEO
NORAD 58383·PAYLOAD·🇺🇸 United States

Wystrzelony Nov 20, 2023 z Vandenberg Space Force Base

Loading…

Następne Przeloty (najbliższe 24 godziny)

TLE

ŚwieżeSource: CelesTrak SupGP

Epoka: Sep 14, 2026, 20:42 UTC

1 58383C 23178K   26257.86298611  .00029923  00000+0  88496-3 0  2570
2 58383  53.1576 198.2595 0001244  95.8016 237.1961 15.34344799    14

Śledź STARLINK-30921 w czasie rzeczywistym z AllMySat

Download on the App Store